| time (UTC) | temp C | wind direction | speed KPH | gust KPH | rain 1hr cm | rain 24hr cm | rain mn cm | humidity % | barometer mb |
| 20260508214454 | 20 | 131 | 3.2 | 3.2 | 0.00 | 0.03 | 0.03 | 44 | 1012.1 |
| 20260508213454 | 21 | 245 | 3.2 | 4.8 | 0.00 | 0.03 | 0.03 | 43 | 1012.2 |
| 20260508212523 | 21 | 225 | 0.0 | 1.6 | 0.00 | 0.03 | 0.03 | 38 | 1012.3 |
| 20260508211524 | 21 | 167 | 1.6 | 4.8 | 0.00 | 0.03 | 0.03 | 38 | 1012.3 |
| 20260508210454 | 21 | 205 | 9.7 | 9.7 | 0.00 | 0.03 | 0.03 | 37 | 1012.4 |
| 20260508205454 | 21 | 206 | 1.6 | 6.4 | 0.00 | 0.03 | 0.03 | 40 | 1012.4 |
| 20260508204454 | 21 | 170 | 1.6 | 4.8 | 0.00 | 0.03 | 0.03 | 40 | 1012.5 |
| 20260508203454 | 21 | 200 | 3.2 | 3.2 | 0.00 | 0.03 | 0.03 | 38 | 1012.6 |
| 20260508202524 | 21 | 200 | 0.0 | 4.8 | 0.00 | 0.03 | 0.03 | 40 | 1012.7 |
| 20260508201454 | 21 | 35 | 1.6 | 6.4 | 0.00 | 0.03 | 0.03 | 39 | 1012.9 |
| 20260508200454 | 21 | 275 | 4.8 | 4.8 | 0.00 | 0.03 | 0.03 | 39 | 1012.8 |
| 20260508194454 | 21 | 223 | 0.0 | 4.8 | 0.00 | 0.05 | 0.03 | 39 | 1013.2 |
| 20260508193454 | 20 | 225 | 1.6 | 6.4 | 0.00 | 0.08 | 0.03 | 38 | 1013.2 |
| 20260508192454 | 20 | 140 | 4.8 | 4.8 | 0.00 | 0.08 | 0.03 | 39 | 1013.4 |
| 20260508191454 | 21 | 274 | 0.0 | 3.2 | 0.00 | 0.08 | 0.03 | 39 | 1013.5 |
| 20260508190454 | 20 | 275 | 0.0 | 11.3 | 0.00 | 0.08 | 0.03 | 38 | 1013.6 |
| 20260508185454 | 20 | 124 | 0.0 | 4.8 | 0.00 | 0.08 | 0.03 | 38 | 1013.8 |
| 20260508184454 | 21 | 261 | 3.2 | 4.8 | 0.00 | 0.08 | 0.03 | 44 | 1013.9 |
| 20260508183453 | 20 | 260 | 3.2 | 4.8 | 0.00 | 0.08 | 0.03 | 42 | 1013.9 |
| 20260508182454 | 20 | 184 | 0.0 | 8.0 | 0.00 | 0.08 | 0.03 | 42 | 1014.1 |
| 20260508181454 | 20 | 288 | 3.2 | 4.8 | 0.00 | 0.08 | 0.03 | 40 | 1014.3 |
| 20260508180454 | 20 | 266 | 0.0 | 3.2 | 0.00 | 0.08 | 0.03 | 41 | 1014.3 |
| 20260508175454 | 20 | 223 | 3.2 | 6.4 | 0.00 | 0.08 | 0.03 | 41 | 1014.4 |
| 20260508174454 | 19 | 88 | 1.6 | 6.4 | 0.00 | 0.08 | 0.03 | 40 | 1014.5 |
| 20260508173454 | 19 | 217 | 0.0 | 4.8 | 0.00 | 0.08 | 0.03 | 45 | 1014.5 |
| 20260508172454 | 18 | 171 | 3.2 | 3.2 | 0.00 | 0.08 | 0.03 | 40 | 1014.6 |
| 20260508171454 | 18 | 159 | 4.8 | 6.4 | 0.00 | 0.08 | 0.03 | 41 | 1014.7 |
| 20260508170454 | 18 | 259 | 1.6 | 4.8 | 0.00 | 0.08 | 0.03 | 41 | 1014.8 |
| 20260508165454 | 18 | 256 | 8.0 | 11.3 | 0.00 | 0.08 | 0.03 | 43 | 1014.9 |
| 20260508164454 | 18 | 174 | 0.0 | 3.2 | 0.00 | 0.08 | 0.03 | 34 | 1015.0 |
| 20260508163454 | 18 | 196 | 1.6 | 4.8 | 0.00 | 0.08 | 0.03 | 36 | 1015.1 |
| 20260508162454 | 18 | 107 | 0.0 | 3.2 | 0.00 | 0.08 | 0.03 | 41 | 1015.2 |
| 20260508160454 | 17 | 228 | 0.0 | 3.2 | 0.00 | 0.08 | 0.03 | 49 | 1015.4 |
| 20260508155454 | 17 | 143 | 0.0 | 4.8 | 0.00 | 0.08 | 0.03 | 47 | 1015.5 |
| 20260508154454 | 17 | 207 | 0.0 | 1.6 | 0.00 | 0.08 | 0.03 | 50 | 1015.5 |
| 20260508152454 | 17 | 164 | 1.6 | 4.8 | 0.00 | 0.08 | 0.03 | 52 | 1015.7 |
| 20260508151454 | 16 | 360 | 0.0 | 1.6 | 0.00 | 0.08 | 0.03 | 43 | 1015.7 |
| 20260508150454 | 16 | 290 | 0.0 | 0.0 | 0.00 | 0.08 | 0.03 | 37 | 1015.8 |
| 20260508145454 | 16 | 293 | 0.0 | 4.8 | 0.00 | 0.08 | 0.03 | 38 | 1015.8 |
| 20260508144454 | 15 | 131 | 0.0 | 1.6 | 0.00 | 0.08 | 0.03 | 39 | 1015.7 |
| 20260508143454 | 16 | 175 | 0.0 | 1.6 | 0.00 | 0.08 | 0.03 | 46 | 1015.8 |
| 20260508142454 | 15 | 61 | 0.0 | 0.0 | 0.00 | 0.08 | 0.03 | 45 | 1015.9 |
| 20260508141454 | 15 | 19 | 0.0 | 3.2 | 0.00 | 0.08 | 0.03 | 42 | 1015.9 |
| 20260508140454 | 15 | 274 | 0.0 | 1.6 | 0.00 | 0.08 | 0.03 | 42 | 1016.0 |
| 20260508135454 | 15 | 271 | 0.0 | 6.4 | 0.00 | 0.08 | 0.03 | 53 | 1016.0 |
| 20260508134524 | 15 | 336 | 0.0 | 0.0 | 0.00 | 0.08 | 0.03 | 42 | 1016.0 |
| 20260508133454 | 14 | 346 | 0.0 | 1.6 | 0.00 | 0.08 | 0.03 | 51 | 1016.0 |
| 20260508132454 | 14 | 273 | 0.0 | 4.8 | 0.00 | 0.08 | 0.03 | 56 | 1016.0 |
| 20260508131454 | 13 | 261 | 4.8 | 6.4 | 0.00 | 0.08 | 0.03 | 56 | 1016.0 |
| 20260508130454 | 13 | 280 | 0.0 | 4.8 | 0.00 | 0.08 | 0.03 | 64 | 1016.0 |
| 20260508125454 | 12 | 256 | 0.0 | 4.8 | 0.00 | 0.08 | 0.03 | 67 | 1015.9 |
| 20260508124624 | 12 | 256 | 0.0 | 3.2 | 0.00 | 0.08 | 0.03 | 67 | 1015.8 |
| 20260508123454 | 12 | 296 | 0.0 | 1.6 | 0.00 | 0.08 | 0.03 | 71 | 1015.7 |
| 20260508122454 | 12 | 295 | 0.0 | 1.6 | 0.00 | 0.08 | 0.03 | 71 | 1015.6 |
| 20260508121454 | 11 | 33 | 0.0 | 0.0 | 0.00 | 0.08 | 0.03 | 77 | 1015.5 |
| 20260508120524 | 11 | 306 | 1.6 | 4.8 | 0.00 | 0.08 | 0.03 | 77 | 1015.5 |
| 20260508115454 | 11 | 256 | 0.0 | 3.2 | 0.00 | 0.08 | 0.03 | 81 | 1015.4 |
| 20260508114524 | 10 | 151 | 0.0 | 0.0 | 0.00 | 0.08 | 0.03 | 84 | 1015.4 |
| 20260508113454 | 9 | 138 | 0.0 | 0.0 | 0.00 | 0.08 | 0.03 | 88 | 1015.2 |
| 20260508112524 | 8 | 138 | 0.0 | 0.0 | 0.00 | 0.08 | 0.03 | 89 | 1015.1 |
| 20260508110454 | 8 | 138 | 0.0 | 0.0 | 0.03 | 0.08 | 0.03 | 90 | 1014.9 |
| 20260508105454 | 7 | 173 | 0.0 | 0.0 | 0.03 | 0.10 | 0.03 | 90 | 1014.8 |
| 20260508104454 | 7 | 173 | 0.0 | 0.0 | 0.03 | 0.10 | 0.03 | 91 | 1014.6 |
| 20260508102454 | 7 | 325 | 0.0 | 0.0 | 0.03 | 0.10 | 0.03 | 91 | 1014.3 |
| 20260508101454 | 7 | 325 | 0.0 | 0.0 | 0.03 | 0.10 | 0.03 | 91 | 1014.3 |
| 20260508100454 | 7 | 325 | 0.0 | 0.0 | 0.00 | 0.08 | 0.00 | 91 | 1014.3 |
| 20260508095454 | 7 | 325 | 0.0 | 0.0 | 0.00 | 0.08 | 0.00 | 91 | 1014.0 |
| 20260508094454 | 7 | 325 | 0.0 | 0.0 | 0.00 | 0.08 | 0.00 | 91 | 1014.0 |
| 20260508093454 | 7 | 306 | 0.0 | 0.0 | 0.00 | 0.08 | 0.00 | 91 | 1013.9 |
| 20260508092454 | 7 | 306 | 0.0 | 0.0 | 0.00 | 0.08 | 0.00 | 91 | 1013.9 |
| 20260508091454 | 8 | 306 | 0.0 | 0.0 | 0.00 | 0.08 | 0.00 | 92 | 1013.8 |
| 20260508090454 | 8 | 306 | 0.0 | 0.0 | 0.00 | 0.08 | 0.00 | 92 | 1013.7 |
| 20260508084524 | 8 | 255 | 0.0 | 0.0 | 0.00 | 0.08 | 0.00 | 92 | 1013.5 |
| 20260508083454 | 8 | 257 | 0.0 | 0.0 | 0.00 | 0.08 | 0.00 | 92 | 1013.2 |
| 20260508082454 | 8 | 254 | 0.0 | 0.0 | 0.00 | 0.08 | 0.00 | 92 | 1013.1 |
| 20260508080454 | 8 | 254 | 0.0 | 0.0 | 0.00 | 0.08 | 0.00 | 92 | 1013.0 |
| 20260508075454 | 8 | 256 | 0.0 | 0.0 | 0.00 | 0.08 | 0.00 | 92 | 1012.9 |
| 20260508074454 | 8 | 229 | 0.0 | 1.6 | 0.00 | 0.08 | 0.00 | 92 | 1012.8 |
| 20260508073454 | 9 | 217 | 0.0 | 0.0 | 0.00 | 0.08 | 0.00 | 92 | 1012.7 |
| 20260508072524 | 8 | 217 | 0.0 | 0.0 | 0.00 | 0.08 | 0.00 | 92 | 1012.7 |
| 20260508070454 | 8 | 278 | 0.0 | 0.0 | 0.00 | 0.08 | 0.00 | 92 | 1012.4 |
| 20260508065524 | 8 | 278 | 0.0 | 0.0 | 0.00 | 0.08 | 0.00 | 92 | 1012.3 |
| 20260508064454 | 8 | 278 | 0.0 | 0.0 | 0.00 | 0.08 | 0.00 | 92 | 1012.2 |
| 20260508062454 | 8 | 278 | 0.0 | 0.0 | 0.00 | 0.08 | 0.00 | 92 | 1012.0 |
| 20260508061454 | 9 | 278 | 0.0 | 0.0 | 0.00 | 0.08 | 0.00 | 91 | 1011.9 |
| 20260508060524 | 9 | 278 | 0.0 | 0.0 | 0.00 | 0.08 | 0.00 | 91 | 1012.0 |
| 20260508055454 | 9 | 278 | 0.0 | 0.0 | 0.00 | 0.08 | 0.00 | 92 | 1011.8 |
| 20260508054454 | 10 | 278 | 0.0 | 0.0 | 0.00 | 0.08 | 0.00 | 91 | 1011.9 |
| 20260508053454 | 9 | 278 | 0.0 | 0.0 | 0.00 | 0.08 | 0.00 | 91 | 1011.8 |
| 20260508052524 | 10 | 278 | 0.0 | 0.0 | 0.00 | 0.13 | 0.00 | 91 | 1011.8 |
| 20260508051454 | 10 | 278 | 0.0 | 0.0 | 0.00 | 0.18 | 0.00 | 91 | 1011.8 |
| 20260508050454 | 10 | 278 | 0.0 | 0.0 | 0.00 | 0.18 | 0.00 | 91 | 1011.8 |
| 20260508045454 | 10 | 278 | 0.0 | 0.0 | 0.00 | 0.18 | 0.00 | 91 | 1011.8 |
| 20260508044454 | 10 | 278 | 0.0 | 0.0 | 0.00 | 0.18 | 0.00 | 91 | 1011.8 |
| 20260508043454 | 10 | 279 | 0.0 | 0.0 | 0.00 | 0.18 | 0.00 | 91 | 1011.8 |
| 20260508042454 | 10 | 279 | 0.0 | 0.0 | 0.00 | 0.18 | 0.00 | 90 | 1011.7 |
| 20260508041454 | 9 | 279 | 0.0 | 0.0 | 0.00 | 0.18 | 0.00 | 90 | 1011.7 |
| 20260508040454 | 9 | 279 | 0.0 | 0.0 | 0.00 | 0.18 | 0.18 | 90 | 1011.6 |
| 20260508035454 | 9 | 279 | 1.6 | 1.6 | 0.00 | 0.18 | 0.18 | 90 | 1011.6 |
| 20260508034454 | 9 | 200 | 0.0 | 0.0 | 0.00 | 0.18 | 0.18 | 90 | 1011.4 |
| 20260508033454 | 9 | 181 | 0.0 | 0.0 | 0.00 | 0.18 | 0.18 | 89 | 1011.3 |
| 20260508032454 | 9 | 181 | 0.0 | 0.0 | 0.00 | 0.18 | 0.18 | 89 | 1011.3 |
| 20260508031454 | 8 | 181 | 0.0 | 0.0 | 0.00 | 0.18 | 0.18 | 89 | 1011.3 |
| 20260508030454 | 8 | 179 | 0.0 | 0.0 | 0.00 | 0.18 | 0.18 | 89 | 1011.2 |
| 20260508025454 | 8 | 176 | 0.0 | 0.0 | 0.00 | 0.18 | 0.18 | 89 | 1011.2 |
| 20260508024454 | 8 | 176 | 0.0 | 0.0 | 0.00 | 0.18 | 0.18 | 88 | 1011.3 |
| 20260508023455 | 8 | 176 | 0.0 | 0.0 | 0.00 | 0.18 | 0.18 | 88 | 1011.2 |
| 20260508022455 | 8 | 176 | 0.0 | 0.0 | 0.00 | 0.18 | 0.18 | 88 | 1011.2 |
| 20260508021455 | 8 | 176 | 0.0 | 0.0 | 0.00 | 0.18 | 0.18 | 88 | 1011.2 |
| 20260508020455 | 8 | 176 | 0.0 | 0.0 | 0.00 | 0.18 | 0.18 | 87 | 1011.2 |
| 20260508015454 | 9 | 176 | 0.0 | 0.0 | 0.00 | 0.18 | 0.18 | 87 | 1011.1 |
| 20260508014454 | 9 | 176 | 0.0 | 0.0 | 0.00 | 0.18 | 0.18 | 87 | 1011.0 |
| 20260508013454 | 9 | 175 | 0.0 | 0.0 | 0.00 | 0.18 | 0.18 | 86 | 1011.0 |
| 20260508012455 | 9 | 175 | 0.0 | 0.0 | 0.00 | 0.18 | 0.18 | 86 | 1011.0 |
| 20260508011454 | 9 | 175 | 0.0 | 0.0 | 0.00 | 0.18 | 0.18 | 86 | 1010.8 |
| 20260508010455 | 10 | 175 | 0.0 | 0.0 | 0.00 | 0.18 | 0.18 | 85 | 1010.7 |
| 20260508004455 | 10 | 175 | 0.0 | 0.0 | 0.00 | 0.18 | 0.18 | 85 | 1010.5 |
| 20260508003455 | 10 | 175 | 0.0 | 0.0 | 0.00 | 0.18 | 0.18 | 86 | 1010.3 |
| 20260508002455 | 10 | 175 | 0.0 | 0.0 | 0.00 | 0.18 | 0.18 | 85 | 1010.3 |
| 20260508000457 | 11 | 175 | 0.0 | 0.0 | 0.00 | 0.18 | 0.18 | 86 | 1010.2 |
| 20260507235455 | 11 | 175 | 0.0 | 0.0 | 0.00 | 0.18 | 0.18 | 85 | 1009.9 |
| 20260507234455 | 11 | 175 | 0.0 | 0.0 | 0.00 | 0.18 | 0.18 | 84 | 1009.7 |
| 20260507233455 | 11 | 175 | 0.0 | 0.0 | 0.00 | 0.18 | 0.18 | 84 | 1009.7 |
| 20260507232455 | 12 | 175 | 0.0 | 0.0 | 0.00 | 0.18 | 0.18 | 83 | 1009.7 |
| 20260507231455 | 12 | 175 | 0.0 | 0.0 | 0.00 | 0.18 | 0.18 | 82 | 1009.5 |
| 20260507230455 | 12 | 176 | 0.0 | 0.0 | 0.00 | 0.18 | 0.18 | 81 | 1009.4 |
| 20260507224455 | 12 | 225 | 0.0 | 0.0 | 0.00 | 0.18 | 0.18 | 80 | 1009.4 |
| 20260507223455 | 12 | 147 | 0.0 | 1.6 | 0.00 | 0.18 | 0.18 | 77 | 1009.5 |
| 20260507222455 | 12 | 232 | 1.6 | 1.6 | 0.00 | 0.18 | 0.18 | 81 | 1009.4 |
| 20260507221455 | 12 | 279 | 0.0 | 0.0 | 0.00 | 0.18 | 0.18 | 79 | 1009.5 |
| 20260507220525 | 12 | 279 | 0.0 | 0.0 | 0.00 | 0.18 | 0.18 | 77 | 1009.5 |
| 20260507215455 | 12 | 327 | 0.0 | 0.0 | 0.00 | 0.18 | 0.18 | 79 | 1009.8 |